Find Starlink 34188

NORAD ID: 64183 Int'l Des: 2025-113 Owner: SPXS Country: US Constellation: starlink operational
LEOCIRCULAR

Live Position

Loading 3D Globe...

About Starlink 34188

Description loading...

Upcoming Passes

Passes for default location (London). Set your location on the main map for personalized predictions.

Altitude History

Loading altitude history...

Two-Line Element Set

1 64183U 25113P 26105.85705604 -.00006980 00000-0 -22377-3 0 9992
2 64183 53.1569 278.6337 0000737 102.7795 257.3288 15.30198730 50756
Epoch: Apr 15, 2026 • Age: 8 hours

Current Status

Altitude 481.1 km
Velocity 7.63 km/s
Sub-Earth Point 52.17°N, 75.01°E
Launch Date May 28, 2025
Age 0.8 years
Type internet

Technical Details

Classification Payload
Mass 575.00 kg
Dry Mass 530.00 kg
Total Mass 575.00 kg
Length 0.30 m
Diameter 4.10 m
Span 29.00 m
Shape Box + pan
Manufacturer SPXS
Bus Type Starlink V2MO
Phase Status In Orbit
Owner/State SPXS/US

Most Searched